User: anonymous   Login
Location: Banksville Park
(38.5557°N, 75.1182°W)
Time: 00:06:27
(UTC+00:00)
Language:

CZ-4B R/B - Orbit

View from above orbital plane
View from above orbital plane
View from above satellite
View from above satellite

Ground track
Ground track

The orbit data is extracted from the following two-line orbital elements,

1 29093U 06015B   20332.47935772  .00007133  00000-0  13504-3 0  9999
2 29093  97.6288 147.5893 0053739  91.1655 269.5752 15.47102069811782
Epoch (UTC): 27 November 2020 11:30:16
Eccentricity: 0.0053739
inclination: 97.6288°
perigee height: 388 km
apogee height: 462 km
right ascension of ascending node: 147.5893°
argument of perigee: 91.1655°
revolutions per day: 15.47102069
mean anomaly at epoch: 269.5752°
orbit number at epoch: 81178

The dashed part of the orbit path shows where the satellite is in the earth's shadow,  

DLR